When you browse on this site, cookies collect data to enhance your experience and personalize the content and advertising you see.
Visit our Privacy Policy to learn more. By continuing to use the site, you agree to this use of cookies and data.
  • In Hungary
  • List of Countries
  • For 7 days
  • Water Temperature
  • Weather Map
  • News
  • Weather Widgets
  • user-avatar
    Login

    Hourly Weather Cabo San Lucas

    Today, 13 November, Wednesday

    Time Temperature Precipitation Wind Pressure Humidity
    00:00 +23°C° 0 mm 1 mps 758 mmHg 83%
    01:00 +22°C° 0 mm 1 mps 758 mmHg 83%
    02:00 +21°C° 0 mm 2 mps 758 mmHg 83%
    03:00 +21°C° 0 mm 2 mps 757 mmHg 83%
    04:00 +21°C° 0 mm 2 mps 757 mmHg 82%
    05:00 +22°C° 0 mm 1 mps 757 mmHg 83%
    06:00 +23°C° 0 mm 2 mps 758 mmHg 78%
    07:00 +24°C° 0 mm 2 mps 758 mmHg 74%
    08:00 +25°C° 0 mm 2 mps 759 mmHg 69%
    09:00 +26°C° 0 mm 2 mps 759 mmHg 62%
    10:00 +28°C° 0 mm 2 mps 759 mmHg 55%
    11:00 +29°C° 0 mm 2 mps 759 mmHg 47%
    12:00 +29°C° 0 mm 2 mps 759 mmHg 50%
    13:00 +29°C° 0 mm 2 mps 758 mmHg 52%
    14:00 +29°C° 0 mm 2 mps 757 mmHg 54%
    15:00 +28°C° 0 mm 2 mps 757 mmHg 57%
    16:00 +28°C° 0 mm 2 mps 757 mmHg 59%
    17:00 +27°C° 0 mm 1 mps 757 mmHg 61%
    18:00 +26°C° 0 mm 1 mps 758 mmHg 67%
    19:00 +24°C° 0 mm 1 mps 758 mmHg 72%
    20:00 +23°C° 0 mm 1 mps 759 mmHg 78%
    21:00 +23°C° 0 mm 1 mps 759 mmHg 78%
    22:00 +23°C° 0 mm 1 mps 759 mmHg 79%
    23:00 +22°C° 0 mm 1 mps 759 mmHg 79%

    Tomorrow, 14 November, Thursday

    Time Temperature Precipitation Wind Pressure Humidity
    00:00 +22°C° 0 mm 1 mps 759 mmHg 80%
    01:00 +21°C° 0 mm 2 mps 759 mmHg 80%
    02:00 +21°C° 0 mm 2 mps 759 mmHg 81%
    03:00 +21°C° 0 mm 2 mps 759 mmHg 81%
    04:00 +21°C° 0 mm 2 mps 759 mmHg 80%
    05:00 +20°C° 0 mm 2 mps 758 mmHg 80%
    06:00 +23°C° 0 mm 2 mps 759 mmHg 73%
    07:00 +24°C° 0 mm 2 mps 759 mmHg 66%
    08:00 +25°C° 0 mm 3 mps 760 mmHg 60%
    09:00 +26°C° 0 mm 2 mps 760 mmHg 54%
    10:00 +28°C° 0 mm 2 mps 760 mmHg 48%
    11:00 +29°C° 0 mm 2 mps 761 mmHg 42%
    12:00 +29°C° 0 mm 2 mps 760 mmHg 44%
    13:00 +29°C° 0 mm 3 mps 759 mmHg 47%
    14:00 +29°C° 0 mm 3 mps 759 mmHg 50%
    15:00 +28°C° 0 mm 3 mps 758 mmHg 53%
    16:00 +28°C° 0 mm 2 mps 758 mmHg 55%
    17:00 +27°C° 0 mm 2 mps 758 mmHg 57%
    18:00 +26°C° 0 mm 2 mps 759 mmHg 63%
    19:00 +24°C° 0 mm 2 mps 759 mmHg 69%
    20:00 +23°C° 0 mm 2 mps 759 mmHg 75%
    21:00 +21°C° 0 mm 2 mps 760 mmHg 75%
    22:00 +22°C° 0 mm 1 mps 760 mmHg 76%
    23:00 +22°C° 0 mm 1 mps 760 mmHg 77%

    Day after tomorrow, 15 November, Friday

    Time Temperature Precipitation Wind Pressure Humidity
    00:00 +21°C° 0 mm 1 mps 759 mmHg 76%
    01:00 +21°C° 0 mm 1 mps 759 mmHg 75%
    02:00 +21°C° 0 mm 1 mps 759 mmHg 75%
    03:00 +21°C° 0 mm 1 mps 759 mmHg 73%
    04:00 +21°C° 0 mm 1 mps 759 mmHg 72%
    05:00 +20°C° 0 mm 2 mps 758 mmHg 71%
    06:00 +21°C° 0 mm 2 mps 759 mmHg 62%
    07:00 +24°C° 0 mm 2 mps 759 mmHg 53%
    08:00 +25°C° 0 mm 2 mps 760 mmHg 44%
    09:00 +27°C° 0 mm 2 mps 760 mmHg 42%
    10:00 +28°C° 0 mm 2 mps 760 mmHg 40%
    11:00 +29°C° 0 mm 2 mps 760 mmHg 38%
    12:00 +29°C° 0 mm 2 mps 759 mmHg 41%
    13:00 +29°C° 0 mm 2 mps 758 mmHg 44%
    14:00 +29°C° 0 mm 2 mps 758 mmHg 48%
    15:00 +29°C° 0 mm 2 mps 758 mmHg 51%
    16:00 +28°C° 0 mm 1 mps 757 mmHg 55%
    17:00 +27°C° 0 mm 1 mps 757 mmHg 58%
    18:00 +26°C° 0 mm 1 mps 757 mmHg 64%
    19:00 +24°C° 0 mm 1 mps 758 mmHg 69%
    20:00 +23°C° 0 mm 1 mps 758 mmHg 74%
    21:00 +23°C° 0 mm 1 mps 758 mmHg 75%
    22:00 +22°C° 0 mm 1 mps 758 mmHg 75%
    23:00 +22°C° 0 mm 1 mps 758 mmHg 75%

    16 November, Saturday

    Time Temperature Precipitation Wind Pressure Humidity
    00:00 +22°C° 0 mm 1 mps 758 mmHg 75%
    01:00 +22°C° 0 mm 1 mps 757 mmHg 75%
    02:00 +22°C° 0 mm 1 mps 757 mmHg 74%
    03:00 +22°C° 0 mm 1 mps 757 mmHg 74%
    04:00 +21°C° 0 mm 2 mps 757 mmHg 73%
    05:00 +21°C° 0 mm 2 mps 757 mmHg 73%
    06:00 +23°C° 0 mm 2 mps 758 mmHg 68%
    07:00 +24°C° 0 mm 2 mps 758 mmHg 63%
    08:00 +26°C° 0 mm 2 mps 758 mmHg 58%
    09:00 +27°C° 0 mm 2 mps 758 mmHg 56%
    10:00 +28°C° 0 mm 2 mps 758 mmHg 53%
    11:00 +30°C° 0 mm 2 mps 758 mmHg 51%
    12:00 +29°C° 0.7 mm 2 mps 758 mmHg 57%
    13:00 +28°C° 0.7 mm 2 mps 757 mmHg 64%
    14:00 +27°C° 0.7 mm 1 mps 756 mmHg 71%
    15:00 +27°C° 0.7 mm 1 mps 756 mmHg 73%
    16:00 +26°C° 0.7 mm 1 mps 756 mmHg 74%
    17:00 +26°C° 0.7 mm 1 mps 756 mmHg 75%
    18:00 +26°C° 0.2 mm 2 mps 757 mmHg 78%
    19:00 +25°C° 0.2 mm 2 mps 757 mmHg 80%
    20:00 +25°C° 0.2 mm 3 mps 757 mmHg 82%
    21:00 +25°C° 0.1 mm 3 mps 757 mmHg 82%
    22:00 +25°C° 0.1 mm 3 mps 757 mmHg 81%
    23:00 +25°C° 0.1 mm 4 mps 757 mmHg 80%

    17 November, Sunday

    Time Temperature Precipitation Wind Pressure Humidity
    00:00 +25°C° 0.4 mm 4 mps 757 mmHg 82%
    01:00 +25°C° 0.4 mm 4 mps 757 mmHg 83%
    02:00 +25°C° 0.4 mm 4 mps 756 mmHg 85%
    03:00 +25°C° 0.1 mm 4 mps 756 mmHg 85%
    04:00 +25°C° 0.1 mm 5 mps 756 mmHg 84%
    05:00 +25°C° 0.1 mm 5 mps 756 mmHg 84%
    06:00 +25°C° 0 mm 5 mps 757 mmHg 83%
    07:00 +26°C° 0 mm 5 mps 757 mmHg 82%
    08:00 +26°C° 0 mm 5 mps 757 mmHg 81%
    09:00 +27°C° 0 mm 5 mps 757 mmHg 76%
    10:00 +28°C° 0 mm 5 mps 758 mmHg 71%
    11:00 +29°C° 0 mm 5 mps 758 mmHg 66%
    12:00 +29°C° 0 mm 6 mps 757 mmHg 63%
    13:00 +30°C° 0 mm 6 mps 756 mmHg 61%
    14:00 +30°C° 0 mm 7 mps 756 mmHg 59%
    15:00 +29°C° 0 mm 6 mps 756 mmHg 61%
    16:00 +29°C° 0 mm 6 mps 756 mmHg 64%
    17:00 +28°C° 0 mm 6 mps 756 mmHg 66%
    18:00 +27°C° 0 mm 6 mps 756 mmHg 71%
    19:00 +26°C° 0 mm 6 mps 757 mmHg 76%
    20:00 +24°C° 0 mm 6 mps 757 mmHg 81%
    21:00 +25°C° 0 mm 5 mps 757 mmHg 81%
    22:00 +25°C° 0 mm 5 mps 757 mmHg 81%
    23:00 +25°C° 0 mm 4 mps 757 mmHg 81%

    18 November, Monday

    Time Temperature Precipitation Wind Pressure Humidity
    00:00 +25°C° 0 mm 5 mps 757 mmHg 81%
    01:00 +25°C° 0 mm 5 mps 757 mmHg 81%
    02:00 +23°C° 0 mm 5 mps 757 mmHg 81%
    03:00 +23°C° 0 mm 5 mps 757 mmHg 82%
    04:00 +23°C° 0 mm 5 mps 756 mmHg 82%
    05:00 +23°C° 0 mm 5 mps 756 mmHg 82%
    06:00 +25°C° 0 mm 4 mps 757 mmHg 79%
    07:00 +26°C° 0 mm 4 mps 757 mmHg 75%
    08:00 +26°C° 0 mm 4 mps 757 mmHg 71%
    09:00 +28°C° 0 mm 4 mps 757 mmHg 65%
    10:00 +29°C° 0 mm 4 mps 757 mmHg 59%
    11:00 +32°C° 0 mm 4 mps 757 mmHg 53%
    12:00 +32°C° 0 mm 4 mps 757 mmHg 54%
    13:00 +32°C° 0 mm 4 mps 756 mmHg 54%
    14:00 +31°C° 0 mm 3 mps 755 mmHg 55%
    15:00 +30°C° 0 mm 3 mps 755 mmHg 59%
    16:00 +29°C° 0 mm 2 mps 755 mmHg 63%
    17:00 +29°C° 0 mm 1 mps 755 mmHg 67%
    18:00 +27°C° 0 mm 1 mps 756 mmHg 72%
    19:00 +26°C° 0 mm 1 mps 756 mmHg 78%
    20:00 +25°C° 0 mm 1 mps 756 mmHg 84%
    21:00 +24°C° 0 mm 1 mps 756 mmHg 84%
    22:00 +24°C° 0 mm 1 mps 756 mmHg 83%
    23:00 +24°C° 0 mm 1 mps 756 mmHg 83%
    Show more